Cloud_Cover
50 35 5 5 5 5 5 5 5 5 5 5 12 90 16 82 82 100 83 42 13 5 5 5 6 7 55 100 38 5 68 100 95 80 100 100 100 95 88 100 99 90 40
17 5 5 5 77 10 5 75 5 5 5 5 83 82 71 98 100 100 36 6 5 5 5 36 53 99 8 16 5 6 22 100 100 100 100 100 78 100 100 91 98 17 1
33 5 5 38 100 81 64 86 5 25 5 5 6 63 86 100 100 100 26 84 5 5 5 5 95 53 17 13 90 6 51 100 100 100 100 98 100 100 100 100 100 100 8
21 6 93 100 100 84 100 100 92 99 86 81 18 27 69 100 100 96 94 99 5 5 27 27 100 67 33 100 100 100 97 100 100 100 98 95 100 100 100 100 100 100 72
29 8 100 65 16 22 100 100 90 86 100 100 93 67 88 88 100 100 99 92 5 89 91 69 100 70 5 82 39 98 96 85 100 100 100 100 100 91 100 100 90 100 100
53 100 96 30 69 77 100 100 100 96 100 65 100 93 100 100 100 66 100 64 70 100 100 100 100 77 92 100 100 100 100 60 58 100 100 100 100 100 100 100 96 100 100
33 7 5 5 42 74 100 100 100 100 100 69 62 95 100 100 100 100 100 53 52 100 81 100 82 66 98 100 100 100 100 20 20 100 100 100 100 100 100 100 100 100 100
5 5 5 6 5 100 100 100 100 100 100 100 80 100 100 100 100 100 88 81 100 100 98 100 69 35 98 100 100 100 100 6 5 100 100 98 100 100 100 100 100 100 100
5 12 81 94 95 100 100 100 100 100 100 100 98 100 100 100 100 94 100 77 100 100 89 89 27 66 95 83 77 89 100 69 69 13 61 43 100 100 100 100 100 100 100
21 9 9 15 100 100 100 98 81 100 100 100 96 100 100 100 100 91 95 100 100 97 82 5 95 9 100 99 62 81 96 100 98 33 7 73 92 100 100 100 100 100 100
26 25 92 63 42 99 46 88 100 100 100 100 100 100 99 98 100 100 100 90 99 100 80 39 17 13 99 88 96 80 40 62 100 100 86 95 100 100 100 100 100 100 100
80 64 36 31 47 54 63 100 100 100 100 98 98 100 100 100 98 100 97 96 5 66 100 71 48 17 99 95 100 5 85 80 96 98 100 100 100 100 100 100 100 98 44
68 96 37 19 32 63 28 12 25 100 34 81 95 100 100 100 99 100 80 95 17 97 100 100 38 5 66 100 100 5 5 5 28 96 100 76 100 100 100 100 100 38 94
100 98 87 16 16 6 6 35 51 32 9 83 79 99 100 100 100 94 100 100 100 98 98 100 5 10 39 100 100 99 5 5 21 65 93 98 100 100 100 100 100 35 70
100 100 100 33 18 15 8 32 53 5 3 5 73 30 73 100 100 100 91 90 100 100 57 100 54 5 46 81 100 100 77 30 63 21 16 69 85 100 100 100 97 100 100
92 87 100 41 10 6 13 29 30 13 5 5 18 59 85 100 100 100 95 34 5 100 75 100 62 5 5 91 100 100 100 76 19 87 32 88 73 57 100 97 100 84 87
58 26 93 42 8 6 39 68 28 31 9 16 57 73 100 78 96 100 100 52 55 100 88 100 87 4 25 22 42 100 100 100 76 61 92 64 7 65 5 7 99 6 18
45 5 26 32 35 6 5 79 79 78 36 19 10 95 100 90 82 94 74 5 74 100 100 100 95 5 98 87 54 100 100 100 98 87 69 30 6 2 5 0 12 25 12
51 3 1 2 14 20 7 46 81 32 25 23 98 60 97 100 83 100 91 46 97 100 100 100 35 10 100 85 9 96 98 100 100 72 83 100 51 5 5 1 0 4 5
84 9 44 10 68 11 25 31 41 32 32 98 100 77 100 99 90 67 95 95 100 100 100 100 66 89 99 42 65 58 100 75 100 100 69 98 94 5 0 0 0 1 4
27 97 100 28 98 37 57 61 67 100 99 90 93 100 100 100 68 100 98 88 100 100 100 100 100 100 94 49 98 93 16 9 44 100 100 15 26 5 0 0 0 0 1
100 59 40 94 66 10 47 26 81 95 100 100 76 100 100 100 91 86 100 100 27 69 100 100 98 100 61 90 95 100 27 88 99 93 100 81 5 5 0 4 23 5 0
56 5 41 48 85 8 80 100 97 100 76 80 96 100 95 100 98 100 59 60 18 92 58 100 100 87 100 66 48 37 8 84 100 100 100 100 3 4 0 2 1 36 16
97 5 5 80 83 5 90 64 98 55 19 30 97 98 90 61 96 85 93 49 43 71 43 23 99 32 26 96 90 10 5 95 89 47 80 100 89 0 0 0 0 4 5
68 93 88 91 75 45 94 10 68 92 5 28 7 61 54 32 9 6 57 88 9 12 7 9 39 75 100 100 51 42 6 48 100 100 99 96 99 96 7 0 0 1 0
5 57 9 8 84 60 10 96 56 6 9 5 20 48 16 39 99 100 5 5 21 46 43 5 5 12 8 92 84 100 81 52 100 100 100 70 38 84 71 4 0 0 0